{"data":{"norad_id":68816,"intl_designator":"2026-089Q","name":"STARLINK-37315","alt_names":[],"object_type":"PAYLOAD","status":"ACTIVE","operator":null,"country":"US","launch_date":"2026-04-23","launch_site_code":"AFWTR","launch_vehicle":null,"mission":null,"orbit_class":"UNKNOWN","rcs_meters":null,"size_class":null,"mass_kg":null,"dimensions":null,"purposes":["comms"],"wikipedia_slug":null,"has_3d_model":false,"image_url":null,"decayed_at":null,"tle_current":{"epoch":"2026-09-20T00:10:52.707072Z","epoch_age_seconds":82649,"freshness":"FRESH","line1":"1 68816U 26089Q   26263.00755448  .00020086  00000+0  62263-3 0  9993","line2":"2 68816  97.2807 108.7771 0000966  75.8976 284.2374 15.33456344 23180","mean_motion":15.33456344,"eccentricity":9.66e-5,"inclination_deg":97.2807,"raan_deg":108.7771,"arg_perigee_deg":75.8976,"mean_anomaly_deg":284.2374,"bstar":0.00062263,"rev_number":2318,"period_min":93.905509969966,"perigee_km":464.84832667893,"apogee_km":466.17051916784,"semimajor_km":6843.6464229234,"source":"CELESTRAK","updated_at":"2026-09-20T09:00:44.009757Z"}}}